Regional Weather Roundup
Issued by NWS

Home | Current Version | Previous Version | Text Only | Print | Product List | Glossary On
Versions: 1 2 3 4 5 6 7 8 9 10 11 12 13 14 15 16 17 18 19 20 21 22 23 24 25 26 27 28 29 30 31 32 33 34 35 36 37 38 39 40 41 42 43 44 45 46 47 48 49 50
000
ASUS43 KMKX 290518
RWRWI

WISCONSIN REGIONAL WEATHER ROUNDUP
NATIONAL WEATHER SERVICE MILWAUKEE/SULLIVAN WI
1200 AM CDT FRI MAY 29 2015

NOTE: "FAIR" INDICATES FEW OR NO CLOUDS BELOW 12,000 FEET WITH NO
SIGNIFICANT WEATHER AND/OR OBSTRUCTIONS TO VISIBILITY.

WIZ001-002-006>008-014>016-023>028-290600-
NORTHWEST WISCONSIN

CITY           SKY/WX    TMP DP  RH WIND       PRES   REMARKS
SUPERIOR ARPT  CLOUDY    41  40  97 CALM      29.96F
ASHLAND        MOCLDY    45  45 100 CALM      29.96F
HAYWARD        FAIR      69  54  58 S9        29.97F
SIREN          PTCLDY    66  54  63 S6        29.94F
CUMBERLAND     MOCLDY    63  54  72 S10       29.97F
RICE LAKE      MOCLDY    66  54  65 SE6       29.99F
CHETEK         MOCLDY    65  56  73 E3        29.98F
LADYSMITH      MOCLDY    64  55  75 E6        30.02S
EAU CLAIRE     CLOUDY    70  54  56 S7        29.97F
MENOMONIE      CLOUDY    67  57  68 E5        29.98S
NEW RICHMOND   MOCLDY    66  54  64 SE6       29.96F
OSCEOLA        MOCLDY    66  55  66 SE7       29.97S
$$

WIZ003>005-009-010-017-018-290600-
NORTH CENTRAL WISCONSIN

CITY           SKY/WX    TMP DP  RH WIND       PRES   REMARKS
MANITOWISH WTR MOCLDY    66  55  69 S7        30.02F
ARBOR VITAE    MOCLDY    65  55  70 S6        30.03F
WOODRUFF       MOCLDY    65  55  70 S6        30.03F
RHINELANDER    MOCLDY    65  54  67 S3        30.05F
EAGLE RIVER    MOCLDY    65  52  63 S3        30.04S
LAND O LAKES   MOCLDY    66  55  66 S5        30.05R
PHILLIPS       PTCLDY    64  56  75 S6        30.01F
TOMAHAWK       MOCLDY    58  55  89 CALM      30.05S
MEDFORD        CLOUDY    63  55  74 SE3       30.03S
MERRILL        MOCLDY    60  55  85 CALM      30.05S
$$

WIZ029-030-035-036-043>047-290600-
CENTRAL WISCONSIN

CITY           SKY/WX    TMP DP  RH WIND       PRES   REMARKS
WAUSAU         MOCLDY    63  56  78 SE3       30.03R
MOSINEE        MOCLDY    63  55  77 SE5       30.05R
MARSHFIELD     CLOUDY    66  54  65 S5        30.02F
STEVENS POINT  CLOUDY    66  54  64 SE5       30.04S
WAUPACA        MOCLDY    68  55  61 SE6       30.05R
WAUTOMA        MOCLDY    68  57  67 CALM      30.04S
WISC RAPIDS    CLOUDY    67  53  61 SE3       30.04R
CAMP DOUGLAS   NOT AVBL
$$

WIZ011>013-019>022-031-037>040-048>050-290600-
NORTHEAST WISCONSIN

CITY           SKY/WX    TMP DP  RH WIND       PRES   REMARKS
ANTIGO         MOCLDY    61  57  86 SE6       30.07S
SHAWANO        PTCLDY    68  55  63 S3        30.06S
OCONTO         PTCLDY    64  55  71 S3        30.06R
STURGEON BAY   PTCLDY    63  52  67 S9        30.09S
GREEN BAY      CLEAR     67  54  63 S6        30.06S
MANITOWOC      CLEAR     52  50  93 E5        30.08S
APPLETON       PTCLDY    68  52  56 S12       30.06S
CLINTONVILLE   PTCLDY    64  54  68 S5        30.05S
OSHKOSH        PTCLDY    65  54  67 S7        30.05S
$$

WIZ032>034-041-042-053>061-290600-
SOUTHWEST WISCONSIN

CITY           SKY/WX    TMP DP  RH WIND       PRES   REMARKS
LA CROSSE      CLOUDY    73  54  51 S6        29.97F
SPARTA         CLOUDY    62  55  76 CALM      30.01S
VIROQUA        CLOUDY    68  53  58 SE7       30.02S
BOSCOBEL       MOCLDY    61  58  90 CALM      30.01S
PRAIRIE DU CHI CLOUDY    68  53  57 CALM      29.99S
PLATTEVILLE    MOCLDY    67  54  63 SE8       30.02S
$$

WIZ056-057-062-063-064-067-068-290600-
SOUTH CENTRAL WISCONSIN

CITY           SKY/WX    TMP DP  RH WIND       PRES   REMARKS
REEDSBURG      CLOUDY    66  56  70 SE5       30.02F
BARABOO/DELLS  CLOUDY    68  55  61 SE8       30.03F
LONE ROCK      MOCLDY    65  57  75 E6        30.02S
MINERAL POINT  MOCLDY    68  50  52 SE5       30.03S
MADISON        MOCLDY    70  54  56 SE9       30.03F
MIDDLETON      MOCLDY    70  54  56 SE5       30.04F
WATERTOWN      PTCLDY   N/A N/A N/A SE5       30.06R
MONROE         MOCLDY    66  54  63 SE8       30.04F
JANESVILLE     MOCLDY    64  54  68 SE7       30.05R
$$

WIZ051-052-058>065-066-070>072-290600-
SOUTHEAST WISCONSIN

CITY           SKY/WX    TMP DP  RH WIND       PRES   REMARKS
MILWAUKEE      CLOUDY    61  53  75 S7        30.08R
WAUKESHA       PTCLDY    63  52  67 SE6       30.09S
MILWAUKEE/TIMM PTCLDY    64  52  63 SE5       30.08S
RACINE         PTCLDY    61  52  72 SE5       30.09S
BURLINGTON     PTCLDY    61  53  76 SE5       30.07S
KENOSHA        PTCLDY    61  53  75 SE5       30.08S
FOND DU LAC    PTCLDY    66  54  65 S10       30.06R
SHEBOYGAN      PTCLDY    57  54  89 CALM      30.08S
WEST BEND      PTCLDY    63  52  67 CALM      30.08S
JUNEAU         CLEAR     65  55  68 SE8       30.07S
$$

LSZ147-162-290600-
LAKE SUPERIOR

STATION/POSITION TIME  TEMP    WIND        PRES    WAVE
                       AIR SEA DIR/SP/G            HT/PER
                 (UTC) (F)     (DEG/KT/KT) (MB)    (FT/S)
W MID LAKE BUOY  0450   38 37  140/  4/  6   N/A     2/ 5
DEVILS ISLAND    0500   41        CALM       N/A
PORT WING        0400   40      50/  4/  7   N/A
SAXON HARBOR     0440   45        CALM       N/A
$$

LMZ867-665-643>646-290600-
LAKE MICHIGAN

STATION/POSITION TIME  TEMP    WIND        PRES    WAVE
                       AIR SEA DIR/SP/G            HT/PER
                 (UTC) (F)     (DEG/KT/KT) (MB)    (FT/S)
CHAMBERS ISLAND  0400   66     160/  6/ 14   N/A
N MID LAKE BUOY  0450   43 36  160/  4/  4   N/A     1/ 4
NORTHPORT PIER   0400   62     160/  6/ 10   N/A
SISTER BAY       0418   62     190/ 14/ 17   N/A
ALGOMA LAKESHORE 0408           CALM  /  3   N/A
KEWAUNEE LAKESHO 0400   49     160/  5/  7   N/A
SHEBOYGAN LAKESH 0500   55     180/  9/ 10   N/A
PORT WASHINGTON  0440   56     190/  2/  4   N/A
ATWATER BUOY     0400   55     160/  6/  8   N/A
MILWAUKEE LAKESH 0400   57     150/  1/  5   N/A
S MID LAKE BUOY  0450   48 38  110/  8/ 10   N/A     0
KENOSHA   LAKESH 0500   59     200/  1/  6   N/A
$$

TC  - TEMPERATURE IN CELSIUS
VSB - VISIBILITY IN STATUTE MILES
WCI - WIND CHILL INDEX
HX  - HEAT INDEX




USA.gov is the U.S. government's official web portal to all federal, state and local government web resources and services.